Radiation Dose at Monitoring Post of Fukushima Daini Nuclear Power Station
Date,Time,MP-1(microSv/h),MP-2(microSv/h),MP-3(microSv/h),MP-4(microSv/h),MP-5(microSv/h),MP-6(microSv/h),MP-7(microSv/h),Wind Direction,Wind Velocity(m/s),Rain
2023/04/17,00:00,0.150,0.134,0.212,0.208,0.211,0.119,0.076,northwest,2.7,No
2023/04/17,00:10,0.150,0.136,0.211,0.208,0.211,0.120,0.075,northwest,4.9,No
2023/04/17,00:20,0.151,0.133,0.211,0.207,0.210,0.119,0.075,north-northwest,5.8,No
2023/04/17,00:30,0.150,0.134,0.212,0.208,0.209,0.118,0.077,northwest,5.5,No
2023/04/17,00:40,0.150,0.134,0.212,0.207,0.211,0.119,0.076,northwest,5.8,No
2023/04/17,00:50,0.150,0.134,0.211,0.207,0.210,0.120,0.076,west-northwest,5.7,No
2023/04/17,01:00,0.150,0.134,0.211,0.207,0.210,0.119,0.076,northwest,4.0,No
2023/04/17,01:10,0.150,0.134,0.212,0.208,0.210,0.119,0.076,northwest,3.4,No
2023/04/17,01:20,0.151,0.134,0.212,0.207,0.212,0.119,0.076,west-northwest,2.7,No
2023/04/17,01:30,0.150,0.134,0.211,0.208,0.210,0.120,0.076,northwest,2.7,No
2023/04/17,01:40,0.150,0.134,0.212,0.208,0.210,0.120,0.076,northwest,3.7,No
2023/04/17,01:50,0.149,0.134,0.212,0.207,0.210,0.119,0.077,northwest,2.8,No
2023/04/17,02:00,0.150,0.135,0.212,0.208,0.211,0.119,0.076,northwest,5.0,No
2023/04/17,02:10,0.150,0.134,0.211,0.208,0.210,0.120,0.076,northwest,4.2,No
2023/04/17,02:20,0.149,0.135,0.212,0.206,0.211,0.120,0.076,northwest,4.5,No
2023/04/17,02:30,0.151,0.135,0.211,0.208,0.210,0.119,0.076,west-northwest,4.6,No
2023/04/17,02:40,0.150,0.135,0.212,0.209,0.212,0.120,0.076,northwest,3.5,No
2023/04/17,02:50,0.151,0.134,0.213,0.207,0.210,0.119,0.076,northwest,2.8,No
2023/04/17,03:00,0.149,0.134,0.211,0.208,0.210,0.119,0.076,north-northwest,2.5,No
2023/04/17,03:10,0.151,0.134,0.212,0.208,0.212,0.120,0.076,north-northwest,2.9,No
2023/04/17,03:20,0.150,0.134,0.212,0.207,0.210,0.119,0.076,north,3.3,No
2023/04/17,03:30,0.150,0.135,0.211,0.208,0.212,0.119,0.076,north,4.6,No
2023/04/17,03:40,0.150,0.135,0.211,0.208,0.211,0.119,0.076,north,4.4,No
2023/04/17,03:50,0.151,0.134,0.211,0.208,0.210,0.119,0.076,north-northeast,3.5,No
2023/04/17,04:00,0.151,0.135,0.212,0.207,0.211,0.119,0.076,north,3.3,No
2023/04/17,04:10,0.151,0.135,0.211,0.208,0.211,0.119,0.076,north,4.3,No
2023/04/17,04:20,0.151,0.134,0.211,0.208,0.211,0.119,0.076,north,3.7,No
2023/04/17,04:30,0.151,0.135,0.212,0.208,0.211,0.119,0.076,north,3.5,No
2023/04/17,04:40,0.152,0.134,0.212,0.208,0.211,0.120,0.076,north,4.1,No
2023/04/17,04:50,0.151,0.133,0.211,0.207,0.211,0.119,0.076,north,4.2,No
2023/04/17,05:00,0.150,0.135,0.211,0.208,0.212,0.120,0.076,north-northwest,4.3,No
2023/04/17,05:10,0.151,0.134,0.213,0.208,0.210,0.119,0.076,north-northwest,4.5,No
2023/04/17,05:20,0.149,0.134,0.212,0.207,0.211,0.118,0.076,north-northwest,3.0,No
2023/04/17,05:30,0.151,0.134,0.211,0.207,0.212,0.119,0.076,north-northwest,2.7,No
2023/04/17,05:40,0.150,0.134,0.212,0.209,0.210,0.119,0.076,north-northwest,2.6,No
2023/04/17,05:50,0.150,0.134,0.211,0.208,0.212,0.119,0.076,north,3.1,No
2023/04/17,06:00,0.151,0.135,0.212,0.207,0.212,0.119,0.076,north,4.2,No
2023/04/17,06:10,0.150,0.135,0.212,0.208,0.210,0.119,0.077,north,4.7,No
2023/04/17,06:20,0.151,0.134,0.213,0.207,0.212,0.119,0.076,north-northwest,4.3,No
2023/04/17,06:30,0.151,0.135,0.212,0.208,0.210,0.120,0.076,north-northwest,3.6,No
2023/04/17,06:40,0.150,0.134,0.212,0.208,0.210,0.121,0.077,north-northwest,4.6,No
2023/04/17,06:50,0.150,0.135,0.211,0.208,0.211,0.119,0.076,north-northwest,4.6,No
2023/04/17,07:00,0.152,0.134,0.212,0.207,0.211,0.120,0.076,north-northwest,4.6,No
2023/04/17,07:10,0.151,0.135,0.212,0.207,0.211,0.119,0.076,north-northwest,4.9,No
2023/04/17,07:20,0.151,0.134,0.211,0.206,0.211,0.119,0.076,north,5.1,No
2023/04/17,07:30,0.150,0.135,0.211,0.208,0.210,0.119,0.077,north-northwest,3.5,No
2023/04/17,07:40,0.149,0.134,0.212,0.207,0.211,0.119,0.076,north-northwest,4.7,No
2023/04/17,07:50,0.152,0.134,0.212,0.207,0.211,0.120,0.076,north-northwest,3.9,No
2023/04/17,08:00,0.150,0.135,0.211,0.207,0.211,0.119,0.077,north-northwest,5.1,No
2023/04/17,08:10,0.150,0.134,0.213,0.207,0.212,0.118,0.076,north-northwest,3.5,No
2023/04/17,08:20,0.151,0.134,0.213,0.208,0.210,0.119,0.077,north-northwest,3.5,No
2023/04/17,08:30,0.150,0.135,0.211,0.208,0.212,0.118,0.076,northwest,4.1,No
2023/04/17,08:40,0.151,0.134,0.212,0.207,0.210,0.119,0.076,north-northwest,5.6,No
2023/04/17,08:50,0.150,0.134,0.211,0.208,0.210,0.118,0.076,north-northwest,4.6,No
2023/04/17,09:00,0.151,0.134,0.211,0.207,0.211,0.119,0.076,north-northwest,5.3,No
2023/04/17,09:10,0.151,0.134,0.211,0.208,0.210,0.119,0.076,northwest,5.4,No
2023/04/17,09:20,0.150,0.135,0.210,0.207,0.211,0.119,0.076,northwest,5.8,No
2023/04/17,09:30,0.151,0.134,0.213,0.208,0.210,0.119,0.077,north-northwest,5.0,No
2023/04/17,09:40,-,-,-,-,-,-,-,-,-,-
2023/04/17,09:50,0.151,0.134,0.211,0.207,0.210,0.119,0.077,northwest,8.1,No
2023/04/17,10:00,0.151,0.135,0.212,0.208,0.210,0.119,0.076,north-northwest,7.6,No
2023/04/17,10:10,0.150,0.134,0.211,0.206,0.209,0.120,0.076,northwest,6.0,No
2023/04/17,10:20,0.151,0.134,0.212,0.208,0.211,0.119,0.076,north-northwest,9.2,No
2023/04/17,10:30,0.150,0.134,0.211,0.207,0.210,0.120,0.076,north-northwest,7.8,No
2023/04/17,10:40,0.152,0.134,0.212,0.209,0.211,0.120,0.077,north-northwest,7.8,No
2023/04/17,10:50,0.151,0.135,0.211,0.207,0.211,0.119,0.076,northwest,6.4,No
2023/04/17,11:00,0.151,0.134,0.213,0.208,0.211,0.120,0.077,northwest,6.4,No
2023/04/17,11:10,0.151,0.134,0.211,0.207,0.211,0.119,0.076,west-northwest,4.4,No
2023/04/17,11:20,0.151,0.133,0.212,0.207,0.211,0.120,0.076,west-northwest,5.9,No
2023/04/17,11:30,0.152,0.134,0.212,0.208,0.211,0.120,0.076,west-northwest,6.8,No
2023/04/17,11:40,0.151,0.135,0.212,0.208,0.210,0.120,0.076,west-northwest,4.3,No
2023/04/17,11:50,0.152,0.134,0.211,0.208,0.211,0.119,0.076,west-northwest,7.8,No
2023/04/17,12:00,0.150,0.135,0.213,0.207,0.210,0.120,0.076,west-northwest,6.4,No
2023/04/17,12:10,0.152,0.134,0.211,0.207,0.210,0.119,0.076,west-northwest,8.1,No
2023/04/17,12:20,0.151,0.135,0.211,0.207,0.211,0.120,0.076,west-northwest,8.1,No
2023/04/17,12:30,0.151,0.135,0.213,0.207,0.210,0.120,0.076,west-northwest,7.7,No
2023/04/17,12:40,0.150,0.134,0.210,0.208,0.210,0.120,0.075,west-northwest,7.1,No
2023/04/17,12:50,0.152,0.135,0.213,0.208,0.210,0.120,0.076,west-northwest,6.6,No
2023/04/17,13:00,0.151,0.134,0.211,0.209,0.213,0.119,0.076,west-northwest,9.2,No
2023/04/17,13:10,0.152,0.135,0.211,0.208,0.211,0.120,0.076,northwest,6.9,No
2023/04/17,13:20,0.151,0.134,0.211,0.209,0.213,0.120,0.076,northwest,7.0,No
2023/04/17,13:30,0.152,0.134,0.213,0.207,0.211,0.120,0.076,northwest,7.4,No
2023/04/17,13:40,0.151,0.135,0.213,0.209,0.212,0.120,0.076,northwest,5.8,No
2023/04/17,13:50,0.150,0.135,0.213,0.208,0.210,0.120,0.076,north-northwest,5.1,No
2023/04/17,14:00,0.151,0.135,0.211,0.208,0.212,0.119,0.076,west-northwest,8.7,No
2023/04/17,14:10,0.150,0.135,0.212,0.208,0.210,0.119,0.076,northwest,9.2,No
2023/04/17,14:20,0.152,0.135,0.212,0.209,0.211,0.119,0.076,northwest,8.8,No
2023/04/17,14:30,0.150,0.135,0.213,0.208,0.211,0.120,0.076,northwest,8.1,No
2023/04/17,14:40,0.152,0.134,0.211,0.209,0.211,0.119,0.076,north-northwest,9.0,No
2023/04/17,14:50,0.151,0.134,0.213,0.208,0.212,0.120,0.076,northwest,8.1,No
2023/04/17,15:00,0.151,0.136,0.213,0.210,0.212,0.119,0.076,north-northwest,7.6,No
2023/04/17,15:10,0.151,0.135,0.213,0.207,0.212,0.120,0.077,northwest,8.2,No
2023/04/17,15:20,0.151,0.136,0.213,0.208,0.213,0.119,0.077,northwest,7.7,No
2023/04/17,15:30,0.152,0.136,0.213,0.210,0.210,0.120,0.077,northwest,6.0,No
2023/04/17,15:40,0.151,0.136,0.213,0.208,0.212,0.120,0.076,northwest,6.9,No
2023/04/17,15:50,0.153,0.135,0.213,0.209,0.212,0.120,0.077,northwest,6.0,No
2023/04/17,16:00,0.151,0.135,0.214,0.207,0.212,0.119,0.076,north-northwest,7.1,No
2023/04/17,16:10,0.152,0.136,0.213,0.210,0.211,0.120,0.076,northwest,5.9,No
2023/04/17,16:20,0.151,0.135,0.212,0.209,0.212,0.120,0.076,northwest,5.1,No
2023/04/17,16:30,0.152,0.136,0.213,0.209,0.210,0.120,0.076,northwest,4.2,No
2023/04/17,16:40,0.153,0.136,0.212,0.211,0.212,0.119,0.077,north-northwest,4.0,No
2023/04/17,16:50,0.152,0.135,0.213,0.208,0.209,0.120,0.077,north-northwest,4.5,No
2023/04/17,17:00,0.153,0.135,0.213,0.208,0.212,0.119,0.076,north-northwest,4.4,No
2023/04/17,17:10,0.151,0.134,0.212,0.208,0.210,0.120,0.077,north-northwest,4.9,No
2023/04/17,17:20,0.152,0.135,0.214,0.207,0.213,0.119,0.077,north,3.0,No
2023/04/17,17:30,0.153,0.136,0.213,0.210,0.212,0.121,0.076,north-northwest,2.0,No
2023/04/17,17:40,0.152,0.134,0.213,0.208,0.212,0.122,0.077,north,1.7,No
2023/04/17,17:50,0.152,0.135,0.213,0.210,0.212,0.120,0.077,north-northwest,2.2,No
2023/04/17,18:00,0.151,0.136,0.213,0.210,0.211,0.120,0.076,northwest,2.0,No
2023/04/17,18:10,0.152,0.135,0.214,0.209,0.213,0.119,0.076,northwest,2.1,No
2023/04/17,18:20,0.153,0.136,0.213,0.209,0.212,0.121,0.076,northwest,2.2,No
2023/04/17,18:30,0.153,0.135,0.213,0.209,0.210,0.119,0.076,north-northwest,1.8,No
2023/04/17,18:40,0.152,0.135,0.214,0.208,0.211,0.120,0.076,west,1.3,No
2023/04/17,18:50,0.151,0.135,0.214,0.209,0.211,0.121,0.076,northwest,1.0,No
2023/04/17,19:00,0.152,0.136,0.213,0.210,0.212,0.119,0.077,west,3.8,No
2023/04/17,19:10,0.151,0.135,0.213,0.210,0.211,0.121,0.076,west,5.4,No
2023/04/17,19:20,0.152,0.136,0.213,0.210,0.212,0.120,0.076,west-northwest,4.7,No
2023/04/17,19:30,0.152,0.135,0.213,0.208,0.212,0.120,0.076,west-northwest,3.1,No
2023/04/17,19:40,0.151,0.136,0.212,0.210,0.212,0.120,0.077,west-northwest,2.3,No
2023/04/17,19:50,0.153,0.136,0.213,0.209,0.211,0.121,0.077,west,1.8,No
2023/04/17,20:00,0.152,0.135,0.215,0.209,0.213,0.120,0.077,west,3.3,No
2023/04/17,20:10,-,-,-,-,-,-,-,-,-,-
2023/04/17,20:20,0.152,0.136,0.213,0.211,0.210,0.120,0.077,west,5.1,No
2023/04/17,20:30,0.152,0.136,0.213,0.210,0.212,0.120,0.077,west,3.5,No
2023/04/17,20:40,0.151,0.136,0.213,0.210,0.211,0.120,0.076,west,3.7,No
2023/04/17,20:50,0.152,0.134,0.214,0.209,0.210,0.120,0.076,west,5.7,No
2023/04/17,21:00,0.152,0.136,0.213,0.209,0.211,0.121,0.076,west,5.8,No
2023/04/17,21:10,0.152,0.135,0.214,0.209,0.211,0.121,0.077,west,5.7,No
2023/04/17,21:20,0.152,0.135,0.214,0.210,0.210,0.119,0.077,west-northwest,5.9,No
2023/04/17,21:30,0.152,0.135,0.213,0.211,0.210,0.120,0.077,west-northwest,4.6,No
2023/04/17,21:40,0.151,0.135,0.213,0.210,0.211,0.121,0.077,west-northwest,6.0,No
2023/04/17,21:50,0.151,0.135,0.213,0.210,0.211,0.119,0.077,west-northwest,5.4,No
2023/04/17,22:00,0.152,0.135,0.213,0.210,0.211,0.121,0.076,west-northwest,4.1,No
2023/04/17,22:10,0.151,0.135,0.214,0.209,0.212,0.119,0.076,west,4.7,No
2023/04/17,22:20,0.151,0.135,0.212,0.209,0.211,0.121,0.076,west,4.7,No
2023/04/17,22:30,0.152,0.134,0.213,0.209,0.212,0.119,0.077,west-northwest,3.7,No
2023/04/17,22:40,0.151,0.136,0.212,0.209,0.211,0.120,0.076,west-northwest,3.4,No
2023/04/17,22:50,0.152,0.135,0.213,0.209,0.211,0.120,0.076,northwest,2.1,No
2023/04/17,23:00,0.152,0.134,0.214,0.209,0.211,0.119,0.076,west-northwest,2.2,No
2023/04/17,23:10,0.151,0.134,0.214,0.209,0.211,0.120,0.076,west-northwest,3.5,No
2023/04/17,23:20,0.151,0.135,0.213,0.209,0.211,0.119,0.076,west-northwest,3.3,No
2023/04/17,23:30,0.152,0.134,0.214,0.209,0.210,0.120,0.076,west-northwest,5.4,No
2023/04/17,23:40,0.153,0.135,0.213,0.209,0.212,0.120,0.076,west-northwest,6.9,No
2023/04/17,23:50,0.152,0.135,0.213,0.209,0.211,0.120,0.076,west,5.9,No
